Location: Newark
(42.7589°N, 8.8294°W)
Time: 11:41:51
(UTC+00:00)

Envisat - Visible Passes

Search period start: 26 January 2020 00:00
Search period end: 05 February 2020 00:00
Orbit: 764 x 766 km, 98.1° (Epoch: 26 January)

Date Brightness Start Highest point End Pass type
(mag) Time Alt. Az. Time Alt. Az. Time Alt. Az.
26 Jan 3.2 07:16:45 10° NNE 07:21:51 79° ESE 07:26:56 10° S visible
26 Jan 3.2 18:31:58 10° S 18:37:02 75° WSW 18:42:08 10° NNW visible
27 Jan 4.8 06:40:18 10° NNE 06:44:58 35° E 06:49:36 10° SSE visible
27 Jan 5.7 19:35:58 10° SW 19:39:38 20° W 19:43:18 10° NW visible
28 Jan 6.1 06:04:43 10° NE 06:07:53 16° E 06:11:02 10° SE visible
28 Jan 4.3 18:57:46 10° S 19:02:34 43° W 19:07:25 10° NNW visible
29 Jan 3.6 07:05:30 10° NNE 07:10:33 62° E 07:15:35 10° S visible
29 Jan 3.0 18:20:40 10° SSE 18:25:44 87° ENE 18:30:52 10° NNW visible
29 Jan 6.4 20:04:04 10° WSW 20:05:25 11° W 20:06:47 10° WNW visible
30 Jan 5.2 06:29:14 10° NE 06:33:36 28° E 06:37:57 10° SSE visible
30 Jan 5.4 19:24:06 10° SSW 19:28:14 25° W 19:32:23 10° NW visible
31 Jan 6.3 05:54:13 10° ENE 05:56:27 13° E 05:58:41 10° ESE visible
31 Jan 3.9 18:46:18 10° S 18:51:15 54° W 18:56:15 10° NNW visible
01 Feb 4.1 06:54:18 10° NNE 06:59:14 49° E 07:04:08 10° S visible
01 Feb 3.0 18:09:25 10° SSE 18:14:28 69° ENE 18:19:32 10° N visible
01 Feb 6.2 19:51:18 10° WSW 19:53:59 14° W 19:56:41 10° WNW visible
02 Feb 5.6 06:18:15 10° NE 06:22:13 23° E 06:26:10 10° SE visible
02 Feb 5.0 19:12:23 10° SSW 19:16:51 31° W 19:21:22 10° NNW visible
03 Feb 3.4 18:34:53 10° S 18:39:56 69° WSW 18:45:01 10° NNW visible
04 Feb 4.6 06:43:07 10° NNE 06:47:53 39° E 06:52:36 10° SSE visible
04 Feb 5.9 19:39:08 10° SW 19:42:34 18° W 19:46:01 10° NW visible
